TimeMDT,TemperatureF,Dew PointF,Humidity,Sea Level PressureIn,VisibilityMPH,Wind Direction,Wind SpeedMPH,Gust SpeedMPH,PrecipitationIn,Events,Conditions,WindDirDegrees,DateUTC
12:15 AM,23.0,21.2,93,30.03,1.5,Calm,Calm,-,N/A,,Overcast,0,2013-04-16 06:15:00
12:35 AM,23.0,21.2,93,30.02,1.8,Calm,Calm,-,N/A,,Overcast,0,2013-04-16 06:35:00
12:55 AM,23.0,21.2,93,30.02,5.0,Calm,Calm,-,N/A,,Overcast,0,2013-04-16 06:55:00
1:15 AM,23.0,21.2,93,30.02,3.0,Calm,Calm,-,N/A,,Overcast,0,2013-04-16 07:15:00
1:35 AM,23.0,21.2,93,30.02,4.0,Calm,Calm,-,N/A,,Overcast,0,2013-04-16 07:35:00
1:55 AM,23.0,21.2,93,30.02,5.0,Calm,Calm,-,N/A,,Overcast,0,2013-04-16 07:55:00
2:15 AM,23.0,19.4,86,30.02,8.0,Calm,Calm,-,N/A,,Overcast,0,2013-04-16 08:15:00
2:55 AM,23.0,21.2,93,30.00,7.0,Calm,Calm,-,N/A,,Overcast,0,2013-04-16 08:55:00
3:15 AM,23.0,19.4,86,29.99,7.0,Calm,Calm,-,N/A,,Overcast,0,2013-04-16 09:15:00
3:35 AM,23.0,21.2,93,29.99,7.0,Calm,Calm,-,N/A,,Overcast,0,2013-04-16 09:35:00
3:55 AM,23.0,21.2,93,29.99,6.0,Calm,Calm,-,N/A,,Overcast,0,2013-04-16 09:55:00
4:15 AM,23.0,21.2,93,29.98,6.0,Calm,Calm,-,N/A,,Overcast,0,2013-04-16 10:15:00
4:35 AM,23.0,21.2,93,29.98,5.0,Calm,Calm,-,N/A,,Overcast,0,2013-04-16 10:35:00
5:15 AM,24.8,21.2,86,29.97,3.0,Calm,Calm,-,N/A,,Overcast,0,2013-04-16 11:15:00
5:35 AM,24.8,21.2,86,29.96,3.0,Calm,Calm,-,N/A,,Overcast,0,2013-04-16 11:35:00
6:15 AM,24.8,21.2,86,29.96,3.0,Calm,Calm,-,N/A,,Overcast,0,2013-04-16 12:15:00
6:35 AM,24.8,21.2,86,29.96,2.0,Calm,Calm,-,N/A,,Overcast,0,2013-04-16 12:35:00
6:55 AM,24.8,23.0,93,29.96,2.5,Calm,Calm,-,N/A,,Overcast,0,2013-04-16 12:55:00
7:15 AM,24.8,21.2,86,29.96,4.0,Calm,Calm,-,N/A,,Overcast,0,2013-04-16 13:15:00
7:35 AM,24.8,21.2,86,29.96,7.0,Calm,Calm,-,N/A,,Overcast,0,2013-04-16 13:35:00
7:55 AM,24.8,21.2,86,29.96,7.0,Calm,Calm,-,N/A,,Overcast,0,2013-04-16 13:55:00
8:15 AM,24.8,23.0,93,29.96,8.0,Calm,Calm,-,N/A,,Overcast,0,2013-04-16 14:15:00
8:35 AM,24.8,23.0,93,29.96,8.0,Calm,Calm,-,0.01,,Overcast,0,2013-04-16 14:35:00
8:55 AM,24.8,23.0,93,29.96,10.0,Calm,Calm,-,0.01,,Overcast,0,2013-04-16 14:55:00
9:15 AM,24.8,23.0,93,29.95,10.0,Calm,Calm,-,N/A,,Overcast,0,2013-04-16 15:15:00
9:55 AM,26.6,24.8,93,29.94,10.0,Calm,Calm,-,0.01,,Overcast,0,2013-04-16 15:55:00
10:15 AM,26.6,24.8,93,29.93,10.0,Calm,Calm,-,N/A,,Overcast,0,2013-04-16 16:15:00
10:35 AM,26.6,24.8,93,29.93,10.0,Calm,Calm,-,0.01,,Overcast,0,2013-04-16 16:35:00
10:55 AM,26.6,24.8,93,29.93,10.0,Calm,Calm,-,0.02,,Overcast,0,2013-04-16 16:55:00
11:15 AM,28.4,24.8,86,29.92,10.0,Calm,Calm,-,N/A,,Overcast,0,2013-04-16 17:15:00
11:35 AM,28.4,24.8,86,29.92,10.0,Calm,Calm,-,N/A,,Overcast,0,2013-04-16 17:35:00
11:55 AM,28.4,24.8,86,29.91,10.0,SSE,9.2,-,0.01,,Overcast,160,2013-04-16 17:55:00
12:15 PM,30.2,26.6,86,29.90,10.0,SSE,12.7,-,N/A,,Overcast,150,2013-04-16 18:15:00
12:35 PM,30.2,26.6,86,29.89,10.0,South,9.2,-,N/A,,Overcast,170,2013-04-16 18:35:00
12:55 PM,30.2,26.6,86,29.88,10.0,SE,13.8,-,N/A,,Overcast,140,2013-04-16 18:55:00
1:15 PM,30.2,26.6,86,29.88,10.0,SE,17.3,-,N/A,,Overcast,140,2013-04-16 19:15:00
1:35 PM,30.2,26.6,86,29.87,10.0,SE,19.6,23.0,N/A,,Overcast,130,2013-04-16 19:35:00
1:55 PM,30.2,26.6,86,29.87,10.0,SE,18.4,24.2,N/A,,Overcast,130,2013-04-16 19:55:00
2:15 PM,32.0,26.6,80,29.86,10.0,SE,19.6,-,N/A,,Overcast,130,2013-04-16 20:15:00
2:35 PM,32.0,26.6,80,29.87,10.0,SE,16.1,23.0,N/A,,Overcast,130,2013-04-16 20:35:00
2:55 PM,32.0,26.6,80,29.86,10.0,ESE,20.7,26.5,N/A,,Overcast,120,2013-04-16 20:55:00
3:15 PM,33.8,26.6,75,29.87,10.0,ESE,19.6,25.3,N/A,,Overcast,120,2013-04-16 21:15:00
3:35 PM,33.8,26.6,75,29.86,10.0,ESE,16.1,-,N/A,,Overcast,120,2013-04-16 21:35:00
3:55 PM,33.8,26.6,75,29.86,10.0,ESE,16.1,-,N/A,,Overcast,110,2013-04-16 21:55:00
4:15 PM,33.8,26.6,75,29.86,10.0,ESE,13.8,-,N/A,,Overcast,120,2013-04-16 22:15:00
4:35 PM,33.8,26.6,75,29.87,10.0,ENE,16.1,-,N/A,,Overcast,60,2013-04-16 22:35:00
4:55 PM,32.0,26.6,80,29.89,10.0,ENE,10.4,-,N/A,,Overcast,60,2013-04-16 22:55:00
5:15 PM,32.0,28.4,87,29.90,10.0,ENE,12.7,-,N/A,,Overcast,60,2013-04-16 23:15:00
5:35 PM,30.2,26.6,86,29.90,10.0,NE,10.4,-,0.01,,Overcast,50,2013-04-16 23:35:00
5:55 PM,30.2,26.6,86,29.91,10.0,NE,6.9,-,0.01,,Overcast,40,2013-04-16 23:55:00
6:15 PM,30.2,26.6,86,29.91,10.0,North,5.8,-,N/A,,Overcast,10,2013-04-17 00:15:00
6:35 PM,30.2,26.6,86,29.92,10.0,North,6.9,-,N/A,,Overcast,10,2013-04-17 00:35:00
6:55 PM,30.2,26.6,86,29.92,10.0,NNE,8.1,-,N/A,,Overcast,30,2013-04-17 00:55:00
7:15 PM,30.2,26.6,86,29.93,10.0,NNE,6.9,-,0.01,,Overcast,30,2013-04-17 01:15:00
7:35 PM,30.2,26.6,86,29.94,6.0,NE,9.2,-,0.01,,Overcast,50,2013-04-17 01:35:00
7:55 PM,28.4,26.6,93,29.95,10.0,North,10.4,-,0.01,,Overcast,10,2013-04-17 01:55:00
8:15 PM,28.4,26.6,93,29.96,10.0,NNE,12.7,-,N/A,,Overcast,30,2013-04-17 02:15:00
8:35 PM,28.4,24.8,86,29.98,10.0,NNE,10.4,-,N/A,,Overcast,20,2013-04-17 02:35:00
8:55 PM,28.4,24.8,86,29.98,10.0,North,8.1,-,N/A,,Overcast,360,2013-04-17 02:55:00
9:15 PM,26.6,24.8,93,30.00,10.0,North,11.5,-,N/A,,Overcast,350,2013-04-17 03:15:00
9:35 PM,28.4,24.8,86,30.00,10.0,NNW,10.4,-,N/A,,Overcast,340,2013-04-17 03:35:00
9:55 PM,26.6,24.8,93,30.00,8.0,NNW,11.5,-,N/A,,Overcast,330,2013-04-17 03:55:00
10:15 PM,28.4,24.8,86,30.00,9.0,NNW,9.2,-,0.01,,Overcast,330,2013-04-17 04:15:00
10:35 PM,28.4,26.6,93,29.99,7.0,NNW,10.4,-,0.01,,Overcast,340,2013-04-17 04:35:00
10:55 PM,28.4,26.6,93,29.99,6.0,NNW,9.2,-,0.01,,Overcast,330,2013-04-17 04:55:00
11:15 PM,28.4,26.6,93,30.00,5.0,NNW,11.5,-,N/A,,Overcast,330,2013-04-17 05:15:00
11:35 PM,28.4,26.6,93,30.00,4.0,NNW,12.7,-,N/A,,Overcast,330,2013-04-17 05:35:00
11:55 PM,30.2,28.4,93,30.00,3.0,North,10.4,-,0.01,,Overcast,350,2013-04-17 05:55:00